Wind_Speed
32 31 32 32 32 32 31 31 31 32 32 32 31 30 29 27 27 27 27 29 27 26 26 25 24 23 22 23 24 20 31 40 34 30 29 24 24 21 23 23 23 22 24 19 27
33 33 33 34 35 34 33 34 34 34 32 31 30 30 30 30 29 29 30 29 28 27 26 25 23 21 22 22 25 29 30 37 28 25 24 23 23 21 20 21 25 25 23 23 24
34 35 35 36 36 37 36 36 34 33 33 31 28 27 25 23 24 27 23 25 24 23 21 23 23 18 21 20 24 29 39 28 26 22 27 23 27 25 26 29 26 21 22 20 19
36 36 35 37 38 37 35 34 33 31 29 26 23 21 21 18 11 15 15 15 15 14 14 13 19 21 23 25 25 33 32 28 28 30 26 27 25 30 28 29 26 27 26 25 26
40 37 34 36 35 33 32 32 30 28 25 23 20 19 19 21 21 25 22 18 19 20 19 14 12 15 21 20 24 32 28 31 29 28 27 28 31 33 36 30 29 30 29 29 29
40 37 35 34 33 32 31 28 25 23 23 21 19 19 19 19 20 18 17 17 14 14 14 13 12 14 17 19 24 22 20 27 26 28 28 28 31 31 35 31 32 32 32 29 28
37 35 34 33 31 29 27 23 20 19 20 21 22 21 19 15 17 17 17 16 17 15 14 13 15 16 9 15 21 23 27 27 28 27 28 25 32 34 32 31 30 29 29 29 29
33 33 33 30 26 23 20 18 19 19 19 19 18 18 17 15 17 18 19 17 16 15 16 17 15 17 18 18 22 21 23 27 22 20 18 20 31 21 18 22 27 27 28 28 29
30 29 27 21 18 16 15 15 15 16 17 15 15 14 13 12 12 12 9 8 11 15 19 19 19 17 16 18 20 19 25 20 18 15 16 19 24 15 12 18 22 23 23 25 24
26 23 18 15 12 14 13 12 9 8 7 9 12 5 9 11 12 11 11 7 7 11 13 15 11 16 19 22 25 17 21 23 18 14 15 21 26 25 25 24 26 21 20 21 23
19 17 14 11 10 10 7 4 5 5 8 8 14 12 15 18 20 19 15 13 11 9 10 10 15 21 20 23 24 23 23 27 25 24 25 29 31 30 29 30 29 26 25 25 23
17 14 11 10 9 5 2 2 4 6 11 12 9 6 5 6 6 7 12 12 12 13 11 15 20 18 18 21 21 23 24 27 24 22 21 27 29 27 29 32 32 31 29 26 25
15 13 12 10 6 5 4 5 6 8 11 9 5 1 3 3 4 5 5 9 12 13 16 20 16 12 14 19 21 22 23 23 23 21 24 29 32 28 25 26 30 32 30 29 27
14 14 12 9 7 5 5 6 7 9 4 5 3 3 3 3 3 5 5 6 10 15 15 23 22 23 23 22 19 23 18 19 18 18 20 16 20 25 21 21 22 23 30 27 29
15 13 11 8 5 4 4 6 8 7 4 4 4 4 3 2 4 8 5 3 7 13 10 17 13 13 16 18 15 19 13 16 18 22 24 27 22 24 11 14 13 15 15 22 23
15 12 9 6 5 4 4 6 6 1 3 4 4 3 3 4 5 6 6 5 5 10 15 19 16 16 16 14 14 16 14 19 22 22 19 28 25 19 9 0 1 4 2 9 15
14 10 7 6 4 3 3 4 3 7 2 2 6 4 5 10 11 10 10 11 10 9 15 14 16 18 14 15 11 10 12 9 12 12 11 8 6 17 4 3 5 5 6 4 9
10 9 7 5 3 3 2 2 7 0 3 6 8 15 16 14 14 15 14 17 17 18 19 19 14 14 14 17 14 14 16 12 7 6 12 6 7 6 4 3 3 1 2 5 9
10 8 6 4 4 4 3 6 5 2 9 9 14 15 13 10 8 12 16 19 18 10 17 18 17 10 9 8 13 9 15 17 20 25 17 15 16 7 5 4 5 6 5 8 11
8 6 4 4 5 5 3 7 4 11 13 6 7 7 9 9 11 11 10 7 9 11 15 21 24 17 12 11 14 17 9 7 11 5 9 14 18 9 8 7 11 13 13 13 13
6 4 5 5 6 3 3 6 7 10 10 4 6 11 13 14 16 17 15 10 7 11 12 15 22 23 19 19 19 15 17 14 10 10 4 6 5 7 9 20 12 12 13 14 17
4 5 6 5 1 3 3 4 6 3 6 4 4 6 7 9 14 17 22 23 14 15 16 12 11 23 30 21 18 16 17 18 11 9 10 8 2 2 11 7 10 10 14 11 12
6 5 5 3 4 5 4 3 4 1 2 2 3 4 7 10 11 9 13 16 24 18 12 10 11 16 21 21 22 21 22 19 13 11 15 8 2 12 18 15 19 20 17 12 8
6 3 3 2 6 10 7 5 3 4 3 2 3 2 4 6 9 14 18 15 15 16 19 23 18 18 21 10 6 14 26 21 18 9 10 13 14 11 12 17 19 17 20 18 8
5 4 4 3 4 5 5 6 4 3 5 3 4 3 8 10 17 13 13 16 16 20 17 17 17 18 24 28 13 12 15 22 19 13 11 13 15 15 11 10 14 18 14 14 14
5 3 4 6 7 7 5 5 5 4 4 7 7 6 10 14 15 21 15 15 16 13 12 17 20 17 27 23 18 12 8 10 11 11 12 11 10 6 10 14 15 15 12 12 13
4 4 6 8 5 6 6 6 6 5 5 7 8 12 12 15 17 20 23 23 23 21 19 18 12 11 21 21 12 8 17 15 10 7 7 9 11 11 10 11 15 19 14 17 14
Wind_Direction
295 297 297 296 294 295 296 295 296 297 298 297 296 294 291 287 284 282 281 280 277 274 269 262 256 252 247 237 224 230 239 247 251 258 266 259 255 248 253 253 242 244 232 237 236
293 293 293 293 292 293 293 294 295 295 295 294 294 292 290 290 289 280 279 276 277 273 267 262 256 252 242 240 228 224 238 247 249 254 266 263 250 255 243 247 247 239 242 238 246
292 290 289 288 289 291 292 293 293 295 295 293 292 292 293 293 293 282 279 276 275 272 265 255 242 233 232 234 236 238 243 248 251 258 259 253 252 253 250 247 247 246 237 239 252
290 285 283 284 285 285 289 292 294 296 294 294 296 295 292 293 294 280 286 279 275 271 271 263 242 232 235 234 241 243 249 253 259 253 260 263 261 257 250 255 249 250 245 241 246
288 282 279 278 279 284 288 291 292 292 292 296 295 290 289 291 284 284 284 287 277 274 269 260 237 234 240 246 246 250 257 256 259 261 263 258 257 261 259 256 253 251 248 247 244
283 277 274 276 281 287 288 288 289 289 289 290 292 293 291 290 283 280 289 280 282 273 266 236 231 237 243 247 246 250 260 257 262 259 261 261 263 263 263 260 255 250 247 247 245
270 268 271 276 282 284 284 285 288 288 291 293 289 285 286 277 283 276 272 276 265 254 237 242 237 244 246 263 259 254 264 265 262 263 262 265 265 261 267 260 252 250 247 246 244
262 266 272 277 281 282 285 286 289 289 291 290 287 279 285 288 285 277 270 265 260 250 246 236 245 247 244 254 262 268 268 268 269 263 257 246 261 267 268 260 253 251 247 245 246
261 267 270 273 278 279 284 288 288 287 286 285 287 290 295 296 278 268 270 263 255 254 250 245 247 242 250 245 262 261 258 262 268 249 264 248 262 250 256 261 253 248 246 242 244
263 262 262 266 266 274 279 278 280 293 301 317 302 310 272 260 259 263 267 254 273 266 256 246 235 236 242 236 242 265 248 255 255 267 263 261 265 266 260 260 258 256 247 242 236
249 249 251 253 255 253 250 282 291 286 309 296 276 262 259 269 270 264 254 269 257 240 231 245 224 232 244 249 255 265 268 274 274 274 275 274 275 273 268 258 254 252 248 238 231
242 243 235 223 219 229 265 311 310 291 302 287 262 265 280 308 297 279 238 244 225 224 236 232 240 248 255 255 255 258 266 270 281 283 275 278 276 277 264 257 250 248 246 241 236
232 219 211 214 218 229 257 289 303 310 304 257 237 238 344 334 33 5 320 238 220 239 233 239 235 259 252 254 257 259 261 272 274 280 279 280 281 283 271 264 254 246 244 238 235
207 202 206 213 216 240 268 301 315 327 234 221 230 258 37 52 343 359 2 192 231 241 245 250 257 254 256 258 255 261 266 262 269 281 283 304 293 279 273 273 269 255 239 232 229
194 194 202 207 223 254 285 308 326 338 257 182 214 210 326 352 288 302 335 329 221 242 242 244 248 256 249 252 245 254 267 262 268 275 286 278 268 282 245 258 267 246 241 232 228
187 195 202 208 225 258 296 318 331 238 182 160 185 241 345 274 297 273 305 289 245 251 249 255 251 257 252 254 248 243 261 273 266 262 263 269 255 263 247 277 16 203 171 225 227
187 194 199 209 230 267 316 344 307 245 137 187 217 267 286 300 274 268 268 267 252 251 252 251 255 250 257 242 242 225 243 279 234 220 243 256 257 243 272 274 283 260 248 261 244
188 194 198 212 239 278 293 31 257 14 226 263 287 284 285 282 273 257 270 264 259 254 266 275 272 223 228 231 229 241 224 240 299 284 298 305 231 164 138 42 360 360 246 257 203
189 190 199 226 266 270 258 226 286 265 252 290 299 282 281 244 277 278 272 265 255 252 248 266 256 210 212 217 213 223 220 243 267 276 277 267 262 166 123 99 4 353 304 274 227
189 190 210 265 272 270 215 219 251 253 266 291 289 283 284 276 295 293 278 276 243 248 255 255 269 241 227 223 243 235 262 230 229 258 242 240 229 93 31 10 333 300 296 272 242
184 219 253 276 284 232 193 223 246 267 273 267 268 271 281 285 279 275 262 277 273 272 268 252 245 254 236 234 239 227 236 236 246 258 290 300 72 39 332 322 341 324 306 277 254
201 231 276 285 290 174 181 194 246 250 299 279 277 278 287 295 288 277 267 255 297 302 294 269 267 252 239 246 241 246 235 238 244 265 255 277 317 291 336 340 350 353 344 290 252
212 253 278 284 152 159 195 198 186 174 224 231 253 272 280 291 296 285 284 274 260 276 277 274 254 263 248 248 238 237 237 239 233 260 271 281 268 342 345 351 341 333 335 313 263
217 227 264 232 175 187 162 157 175 215 206 169 253 272 308 308 287 285 295 284 273 255 269 291 276 263 271 308 259 252 233 227 224 241 269 266 303 324 336 331 329 347 328 336 249
205 200 222 195 174 166 157 160 196 209 236 244 257 264 331 321 313 301 303 318 272 268 267 257 263 270 270 268 268 269 252 217 220 234 262 287 303 311 317 309 312 327 310 311 341
213 203 205 184 187 161 190 199 204 213 227 207 253 285 296 299 295 298 304 299 293 258 235 253 269 275 291 244 242 257 262 251 237 257 269 277 287 344 329 311 313 317 308 306 311
222 199 164 220 193 195 225 216 211 258 263 241 255 279 292 289 282 282 279 278 274 270 270 276 275 282 289 212 206 231 256 236 231 238 266 295 318 304 291 290 301 325 286 288 320
Height
3101 3099 3098 3096 3095 3094 3093 3091 3089 3088 3087 3087 3087 3086 3085 3082 3082 3081 3081 3081 3080 3080 3080 3081 3081 3083 3085 3086 3089 3092 3092 3081 3085 3089 3089 3089 3089 3090 3090 3090 3093 3091 3091 3093 3086
3096 3095 3093 3091 3090 3089 3087 3085 3084 3082 3081 3080 3080 3079 3077 3076 3075 3074 3074 3074 3074 3074 3075 3076 3077 3077 3079 3082 3087 3086 3081 3078 3083 3083 3083 3084 3085 3084 3085 3084 3086 3087 3088 3087 3084
3091 3090 3089 3087 3085 3084 3082 3081 3079 3078 3076 3074 3073 3073 3071 3070 3069 3065 3066 3067 3068 3068 3069 3071 3073 3075 3076 3079 3083 3081 3071 3078 3078 3080 3078 3078 3079 3080 3078 3077 3080 3081 3082 3083 3081
3085 3084 3083 3081 3079 3078 3077 3075 3074 3072 3070 3069 3068 3069 3067 3066 3070 3062 3063 3063 3065 3066 3065 3068 3068 3070 3071 3073 3077 3077 3074 3074 3073 3073 3073 3072 3072 3072 3071 3072 3075 3075 3076 3077 3076
3079 3078 3076 3074 3072 3071 3070 3068 3068 3067 3064 3064 3064 3064 3062 3061 3062 3056 3058 3059 3059 3061 3062 3065 3065 3068 3069 3070 3072 3071 3071 3069 3068 3067 3065 3066 3063 3063 3060 3065 3066 3066 3066 3068 3069
3072 3071 3070 3068 3066 3065 3064 3062 3062 3061 3060 3059 3059 3058 3056 3058 3054 3053 3053 3054 3055 3055 3058 3063 3064 3066 3066 3066 3066 3067 3064 3062 3060 3059 3058 3057 3054 3057 3053 3056 3055 3057 3058 3061 3062
3064 3064 3063 3062 3061 3060 3058 3057 3057 3056 3055 3054 3054 3052 3052 3054 3051 3049 3049 3050 3051 3052 3054 3059 3060 3060 3062 3062 3063 3060 3058 3056 3053 3053 3050 3052 3046 3046 3048 3047 3047 3048 3050 3053 3055
3057 3057 3057 3056 3056 3054 3053 3053 3053 3052 3051 3050 3050 3048 3045 3045 3045 3044 3045 3046 3045 3046 3048 3050 3053 3054 3057 3058 3057 3056 3054 3049 3048 3047 3047 3048 3039 3043 3044 3042 3041 3041 3042 3045 3047
3051 3051 3050 3051 3051 3049 3049 3049 3050 3048 3047 3046 3045 3043 3041 3039 3042 3041 3042 3042 3042 3042 3043 3044 3045 3051 3055 3053 3055 3050 3045 3044 3044 3043 3043 3042 3036 3038 3039 3038 3036 3036 3037 3039 3042
3045 3045 3046 3046 3046 3046 3046 3046 3046 3044 3042 3040 3041 3043 3041 3040 3038 3038 3039 3039 3039 3039 3040 3041 3044 3047 3049 3051 3046 3042 3040 3039 3038 3040 3037 3035 3031 3032 3032 3032 3030 3030 3031 3033 3036
3040 3039 3041 3041 3042 3043 3044 3043 3043 3042 3040 3041 3040 3037 3034 3035 3033 3034 3035 3035 3035 3038 3039 3041 3043 3042 3044 3046 3044 3041 3040 3037 3035 3035 3032 3027 3025 3023 3024 3023 3024 3023 3024 3027 3030
3034 3036 3037 3038 3039 3039 3039 3040 3041 3042 3039 3037 3035 3034 3032 3031 3030 3028 3031 3033 3033 3034 3038 3042 3038 3040 3041 3042 3041 3038 3035 3032 3030 3030 3027 3021 3017 3016 3016 3013 3015 3016 3018 3021 3024
3030 3033 3034 3035 3036 3037 3037 3038 3038 3037 3036 3033 3031 3031 3031 3031 3030 3027 3027 3027 3031 3032 3035 3035 3036 3035 3037 3037 3036 3033 3032 3029 3029 3026 3021 3015 3009 3007 3003 3004 3004 3007 3009 3014 3018
3027 3029 3030 3032 3036 3034 3034 3034 3034 3034 3032 3033 3031 3031 3029 3030 3030 3027 3025 3027 3027 3030 3032 3031 3032 3032 3032 3031 3032 3028 3028 3027 3025 3023 3016 3012 3003 3003 3002 3000 3000 3000 3002 3005 3010
3024 3025 3028 3029 3030 3032 3031 3030 3031 3030 3026 3032 3029 3028 3028 3030 3030 3026 3025 3023 3025 3028 3029 3027 3027 3027 3026 3025 3026 3025 3025 3024 3022 3018 3014 3008 3005 2996 2995 2995 2996 2995 2996 2999 3003
3020 3022 3024 3025 3027 3028 3027 3027 3028 3030 3021 3028 3029 3028 3029 3028 3029 3024 3024 3023 3025 3025 3024 3023 3024 3023 3022 3022 3021 3022 3022 3020 3016 3014 3007 2999 2999 2992 2989 2991 2992 2993 2994 2996 3000
3017 3019 3022 3023 3024 3025 3025 3026 3028 3023 3024 3026 3026 3025 3025 3026 3025 3024 3024 3023 3024 3022 3018 3017 3017 3019 3017 3019 3019 3019 3020 3014 3003 3000 2996 2991 2994 2990 2989 2990 2993 2993 2993 2993 2994
3015 3017 3019 3020 3021 3021 3023 3024 3025 3021 3024 3021 3022 3022 3024 3022 3020 3020 3020 3019 3019 3019 3017 3015 3012 3012 3014 3013 3015 3014 3015 3012 2999 2992 2993 2991 2986 2986 2986 2989 2991 2992 2990 2990 2989
3012 3014 3016 3018 3018 3019 3020 3023 3019 3020 3018 3018 3018 3018 3017 3018 3018 3017 3016 3014 3014 3013 3015 3011 3007 3008 3009 3011 3013 3010 3010 3010 3007 2999 2995 2987 2984 2984 2985 2987 2988 2987 2987 2984 2985
3010 3011 3012 3014 3014 3016 3018 3018 3016 3015 3014 3016 3019 3017 3016 3016 3015 3015 3013 3010 3010 3010 3012 3009 3006 3006 3005 3007 3008 3007 3008 3005 3005 2999 2987 2973 2974 2980 2983 2984 2982 2980 2980 2981 2982
3007 3008 3010 3010 3011 3013 3015 3015 3012 3010 3012 3015 3015 3015 3015 3014 3014 3014 3012 3010 3009 3009 3008 3006 3004 3003 3002 3002 3002 3003 3002 3003 3001 2998 2988 2978 2979 2982 2980 2979 2978 2977 2976 2976 2978
3004 3006 3006 3006 3009 3009 3012 3009 3010 3009 3010 3011 3011 3012 3012 3012 3011 3010 3009 3008 3007 3006 3003 3003 2998 2994 2993 2994 2995 2995 2996 2998 2996 2991 2990 2987 2985 2982 2981 2979 2978 2976 2975 2973 2973
3002 3003 3003 3003 3006 3008 3006 3007 3008 3009 3010 3011 3011 3011 3011 3011 3010 3006 3004 3004 3003 3004 3001 2998 2996 2993 2990 2991 2989 2989 2991 2992 2993 2992 2990 2989 2984 2983 2983 2980 2979 2976 2973 2972 2971
3001 3000 3000 3001 3003 3004 3005 3007 3008 3007 3007 3007 3008 3008 3008 3007 3006 3003 3001 3001 3000 2999 2999 2996 2994 2994 2986 2987 2986 2983 2985 2987 2990 2990 2987 2986 2984 2981 2981 2978 2977 2974 2973 2971 2970
2997 2998 2998 2999 3003 3003 3004 3006 3007 3007 3006 3007 3006 3005 3005 3004 3002 3000 2998 2996 2994 2995 2995 2993 2989 2990 2986 2983 2984 2980 2979 2982 2984 2985 2986 2985 2984 2983 2981 2977 2974 2973 2972 2970 2969
2995 2996 2997 3000 2998 3002 3003 3005 3006 3007 3006 3006 3004 3004 3004 3003 3002 2997 2995 2994 2992 2990 2988 2987 2984 2986 2980 2980 2982 2979 2977 2979 2981 2982 2983 2983 2982 2980 2975 2974 2971 2971 2970 2970 2968
2993 2993 2996 2997 2999 3003 3004 3003 3004 3004 3004 3003 3003 3001 3000 3000 2997 2994 2990 2988 2988 2987 2986 2985 2985 2985 2974 2974 2979 2980 2979 2979 2980 2980 2981 2981 2979 2975 2973 2973 2970 2969 2968 2969 2968